STARLINK-11563, 63053

Orbit data source: Space-Track

STARLINK-11563, 63053 is a payload satellite owned by SpaceX/Seattle (US) in LEO that was launched on Fri, 21 Feb 2025 UTC via an FALCON 9 launch vehicle from the Air Force Eastern Test Range (AFETR). Payload-class satellites include a variety of spacecraft equipped with specific instruments for various scientific and technological missions. These include communications satellites like Starlink; space stations such as the ISS; scientific satellites like the Hubble; Earth observation satellites from companies like Planet Labs, Umbra, and HawkEye 360; GPS; miniature CubeSats for education and research; and military/defense satellites.

Loading next visibility...
Identifier
63053, 2025-035B
Orbit
LEO
Country
Flag of USUS
Related business
Manufacturer
SpaceX/Seattle
Mission
Operational Commercial Communications
Bus & Motor
STARLINK V2MD, Unknown motor
Mass
960 kg wet, ~910 kg dry
Launch date (UTC)
2025-02-21 (1 year ago)
Launch vehicle
FALCON 9
Launch site
Air Force Eastern Test Range (AFETR)
Object type
Payload
Rocket body
Debris
Shape & HBR
Box + 2 Pan, 18.1 m
Radar Cross Section
36.964 m², Large (>1 m²)

Expand to show TLE details & history
Last TLE update: 16 hours ago

TLE from 16 hours ago
0 STARLINK-11563
1 63053U 25035B   26171.19351615  .00192706  00000-0  14649-2 0  9991
2 63053  43.0013 117.3431 0002675 252.5088 107.5487 15.70933103 77233
Epoch: 2026-06-20T04:38Z
TLE epoch observation values (Epoch: 2026-06-20T04:38:39.795Z)
Latitude
-0.00004°
Longitude
139.26559°
Altitude
356.544 km
Speed
7.697 km/s
True Right ascension
07h 49m 22s
True Declination
0° 00' 00"
Sunlit
Object was in daylight at epoch
Visualization orbit readout
Latitude
Unknown
Longitude
Unknown
Altitude
Unknown
Speed
Unknown
Apparent Right ascension
Unknown
Apparent Declination
Unknown
Sunlit
N/A
Visualization observer readout
Local Sidereal Time
07:16:57
Azimuth
Unknown
Elevation
Unknown
Doppler factor
Unknown
Orbital elements
Apogee altitude
360.012 km
Perigee altitude
356.408 km
Semi-major axis
6,736.347 km
Eccentricity
0.00027
Inclination
43.0013°
RAAN
117.3431°
Arg. of periapsis
252.5088°
True anomaly
107.57792°
Mean anomaly
107.5487°
Eccentric anomaly
107.56331°
Mean motion
3.9256 °/min
Orbital period
91.71 mins
BSTAR
0.0014649
Loading maneuver chart data...
Computing Atmospheric mass density...
Loading historical data...
Loading historical data...
Loading historical data...
Loading historical data...
Loading historical data...
Loading historical data...
Loading historical data...

Documentation

Showing up to 5 results
|